EJU015 EPWA-LOWW

Flight info

Callsign EJU015
Flight time 0h 58m
Altitude 34000
Route EVINA N744 TUSIN DCT MIKOV MIKOV8W
Aircraft A320/M-SDE3FGHIRWY/LB1

Departure

Time 2026-04-20 16:54
Airport Warsaw Chopin Airport (EPWA)

Arrival

Time 2026-04-20 17:53
Airport Vienna International Airport (LOWW)
Time Latitude Longitude Altitude Speed Heading
2026-04-20 15:58 52.16957 20.97187 339 ft 0 kts 68°
2026-04-20 16:42 52.16956 20.97186 311 ft 1 kts 68°
2026-04-20 16:42 52.16950 20.97161 334 ft 3 kts 65°
2026-04-20 16:42 52.16941 20.97132 333 ft 3 kts 62°
2026-04-20 16:42 52.16931 20.97103 335 ft 3 kts 54°
2026-04-20 16:43 52.16918 20.97079 334 ft 3 kts 36°
2026-04-20 16:43 52.16903 20.97066 334 ft 3 kts 351°
2026-04-20 16:43 52.16895 20.97070 336 ft 1 kts 332°
2026-04-20 16:43 52.16893 20.97072 336 ft 0 kts 332°
2026-04-20 16:47 52.16895 20.97070 336 ft 1 kts 332°
2026-04-20 16:48 52.16904 20.97062 334 ft 4 kts 332°
2026-04-20 16:48 52.16947 20.97024 336 ft 10 kts 332°
2026-04-20 16:48 52.17028 20.96954 337 ft 16 kts 332°
2026-04-20 16:48 52.17109 20.96882 336 ft 12 kts 332°
2026-04-20 16:49 52.17155 20.96842 336 ft 5 kts 328°
2026-04-20 16:49 52.17161 20.96784 338 ft 7 kts 249°
2026-04-20 16:49 52.17141 20.96723 338 ft 6 kts 242°
2026-04-20 16:49 52.17136 20.96634 335 ft 9 kts 297°
2026-04-20 16:50 52.17182 20.96579 334 ft 8 kts 333°
2026-04-20 16:50 52.17254 20.96517 335 ft 13 kts 332°
2026-04-20 16:50 52.17322 20.96457 339 ft 10 kts 332°
2026-04-20 16:50 52.17378 20.96408 336 ft 8 kts 332°
2026-04-20 16:51 52.17429 20.96364 336 ft 10 kts 332°
2026-04-20 16:51 52.17489 20.96311 338 ft 9 kts 332°
2026-04-20 16:51 52.17547 20.96260 336 ft 12 kts 329°
2026-04-20 16:51 52.17583 20.96157 337 ft 10 kts 268°
2026-04-20 16:52 52.17562 20.96082 335 ft 3 kts 225°
2026-04-20 16:52 52.17539 20.96058 336 ft 7 kts 208°
2026-04-20 16:52 52.17497 20.96024 339 ft 11 kts 206°
2026-04-20 16:52 52.17410 20.95979 338 ft 9 kts 161°
2026-04-20 16:53 52.17401 20.95988 336 ft 0 kts 152°
2026-04-20 16:53 52.17385 20.96002 336 ft 17 kts 152°
2026-04-20 16:53 52.17046 20.96302 336 ft 90 kts 151°
2026-04-20 16:53 52.16308 20.96946 335 ft 145 kts 152°
2026-04-20 16:54 52.15343 20.97835 639 ft 165 kts 144°
2026-04-20 16:54 52.14318 20.98772 1159 ft 164 kts 144°
2026-04-20 16:54 52.13390 20.99566 1492 ft 159 kts 146°
2026-04-20 16:54 52.12356 21.00482 1880 ft 179 kts 148°
2026-04-20 16:55 52.11228 21.01202 2239 ft 168 kts 159°
2026-04-20 16:55 52.09991 21.01217 2555 ft 198 kts 199°
2026-04-20 16:55 52.08728 20.99997 2858 ft 224 kts 208°
2026-04-20 16:55 52.07310 20.98649 3254 ft 249 kts 206°
2026-04-20 16:56 52.05768 20.97249 3511 ft 248 kts 207°
2026-04-20 16:56 52.04281 20.95896 3632 ft 251 kts 207°
2026-04-20 16:56 52.02696 20.94453 4060 ft 266 kts 207°
2026-04-20 16:56 52.01045 20.92939 4687 ft 276 kts 207°
2026-04-20 16:57 51.99398 20.91420 5538 ft 254 kts 207°
2026-04-20 16:57 51.98024 20.90133 5833 ft 215 kts 207°
2026-04-20 16:57 51.96629 20.88844 5970 ft 249 kts 206°
2026-04-20 16:57 51.95023 20.87379 6040 ft 278 kts 207°
2026-04-20 16:58 51.93320 20.85816 6842 ft 282 kts 207°
2026-04-20 16:58 51.91604 20.84229 7723 ft 285 kts 208°
2026-04-20 16:58 51.89873 20.82622 8570 ft 290 kts 207°
2026-04-20 16:58 51.88112 20.80992 9440 ft 293 kts 208°
2026-04-20 16:59 51.86336 20.79351 10263 ft 297 kts 209°
2026-04-20 16:59 51.84468 20.77628 10548 ft 321 kts 209°
2026-04-20 16:59 51.82468 20.75785 10897 ft 339 kts 209°
2026-04-20 16:59 51.80401 20.73882 11569 ft 344 kts 209°
2026-04-20 17:00 51.76190 20.70013 13083 ft 350 kts 210°
2026-04-20 17:00 51.74064 20.68068 13901 ft 351 kts 210°
2026-04-20 17:00 51.71929 20.66118 14563 ft 354 kts 211°
2026-04-20 17:01 51.69775 20.64147 15187 ft 358 kts 210°
2026-04-20 17:01 51.67592 20.62148 15793 ft 363 kts 211°
2026-04-20 17:01 51.65384 20.60127 16396 ft 367 kts 210°
2026-04-20 17:01 51.63154 20.58085 17008 ft 371 kts 211°
2026-04-20 17:02 51.60899 20.56020 17608 ft 375 kts 210°
2026-04-20 17:02 51.58619 20.53942 18196 ft 379 kts 210°
2026-04-20 17:02 51.56311 20.51849 18719 ft 383 kts 210°
2026-04-20 17:02 51.53984 20.49739 19252 ft 386 kts 210°
2026-04-20 17:03 51.51639 20.47615 19783 ft 388 kts 210°
2026-04-20 17:03 51.49278 20.45482 20311 ft 391 kts 210°
2026-04-20 17:03 51.46900 20.43332 20826 ft 393 kts 210°
2026-04-20 17:03 51.44506 20.41172 21342 ft 396 kts 210°
2026-04-20 17:04 51.42096 20.38999 21831 ft 399 kts 210°
2026-04-20 17:04 51.39667 20.36810 22337 ft 402 kts 210°
2026-04-20 17:04 51.37335 20.34317 22801 ft 404 kts 216°
2026-04-20 17:04 51.35070 20.31626 23278 ft 407 kts 217°
2026-04-20 17:05 51.32809 20.28883 23735 ft 410 kts 217°
2026-04-20 17:05 51.30539 20.26107 24149 ft 411 kts 217°
2026-04-20 17:05 51.28261 20.23320 24550 ft 413 kts 217°
2026-04-20 17:05 51.25965 20.20529 24938 ft 416 kts 217°
2026-04-20 17:06 51.23651 20.17740 25348 ft 417 kts 217°
2026-04-20 17:06 51.21361 20.14997 25756 ft 418 kts 216°
2026-04-20 17:06 51.18998 20.12175 26149 ft 420 kts 216°
2026-04-20 17:06 51.16656 20.09380 26530 ft 421 kts 216°
2026-04-20 17:07 51.14296 20.06561 26908 ft 423 kts 217°
2026-04-20 17:07 51.11981 20.03792 27259 ft 425 kts 216°
2026-04-20 17:07 51.09608 20.00960 27639 ft 427 kts 216°
2026-04-20 17:07 51.07228 19.98124 27988 ft 429 kts 216°
2026-04-20 17:08 51.04832 19.95280 28341 ft 431 kts 216°
2026-04-20 17:08 51.02425 19.92436 28732 ft 432 kts 216°
2026-04-20 17:08 51.00013 19.89590 29127 ft 432 kts 216°
2026-04-20 17:08 50.97595 19.86735 29434 ft 434 kts 216°
2026-04-20 17:09 50.95167 19.83867 29730 ft 436 kts 216°
2026-04-20 17:09 50.92729 19.80984 30045 ft 438 kts 216°
2026-04-20 17:09 50.90284 19.78098 30323 ft 440 kts 216°
2026-04-20 17:09 50.87821 19.75199 30525 ft 442 kts 216°
2026-04-20 17:10 50.85348 19.72296 30759 ft 444 kts 216°
2026-04-20 17:10 50.82864 19.69388 31043 ft 444 kts 216°
2026-04-20 17:10 50.80379 19.66476 31362 ft 444 kts 216°
2026-04-20 17:10 50.77896 19.63566 31621 ft 445 kts 217°
2026-04-20 17:11 50.75406 19.60649 31927 ft 445 kts 217°
2026-04-20 17:11 50.72920 19.57740 32236 ft 445 kts 217°
2026-04-20 17:11 50.70429 19.54829 32508 ft 446 kts 217°
2026-04-20 17:11 50.67931 19.51918 32786 ft 447 kts 217°
2026-04-20 17:12 50.65429 19.49007 33060 ft 447 kts 217°
2026-04-20 17:12 50.62921 19.46098 33347 ft 448 kts 217°
2026-04-20 17:12 50.60406 19.43191 33615 ft 449 kts 218°
2026-04-20 17:12 50.57888 19.40286 33905 ft 449 kts 218°
2026-04-20 17:13 50.55367 19.37376 34019 ft 449 kts 218°
2026-04-20 17:13 50.50360 19.31592 34032 ft 445 kts 218°
2026-04-20 17:14 50.45367 19.25839 34034 ft 445 kts 218°
2026-04-20 17:14 50.40405 19.20156 34029 ft 444 kts 218°
2026-04-20 17:15 50.35418 19.14439 34029 ft 444 kts 218°
2026-04-20 17:15 50.30425 19.08731 34033 ft 444 kts 218°
2026-04-20 17:16 50.25428 19.03041 34037 ft 444 kts 218°
2026-04-20 17:16 50.20425 18.97364 34034 ft 444 kts 218°
2026-04-20 17:17 50.15422 18.91710 34037 ft 444 kts 218°
2026-04-20 17:17 50.10424 18.86073 34038 ft 443 kts 218°
2026-04-20 17:18 50.05432 18.80438 34037 ft 443 kts 218°
2026-04-20 17:18 50.00438 18.74821 34029 ft 443 kts 218°
2026-04-20 17:19 49.95434 18.69212 34026 ft 443 kts 218°
2026-04-20 17:19 49.90424 18.63605 34031 ft 444 kts 218°
2026-04-20 17:20 49.85460 18.57929 34030 ft 442 kts 224°
2026-04-20 17:20 49.81379 18.50902 34017 ft 438 kts 233°
2026-04-20 17:21 49.77536 18.43582 34024 ft 438 kts 233°
2026-04-20 17:21 49.73684 18.36281 34025 ft 438 kts 233°
2026-04-20 17:22 49.69821 18.28987 34027 ft 438 kts 233°
2026-04-20 17:22 49.65957 18.21710 34027 ft 438 kts 233°
2026-04-20 17:23 49.62085 18.14434 34030 ft 439 kts 233°
2026-04-20 17:23 49.58210 18.07172 34025 ft 439 kts 233°
2026-04-20 17:24 49.54324 17.99918 34023 ft 439 kts 233°
2026-04-20 17:24 49.50441 17.92678 34023 ft 439 kts 233°
2026-04-20 17:25 49.46552 17.85452 34003 ft 439 kts 233°
2026-04-20 17:25 49.42655 17.78235 34004 ft 439 kts 233°
2026-04-20 17:26 49.40072 17.73459 34014 ft 439 kts 233°
2026-04-20 17:27 49.30889 17.56552 32647 ft 449 kts 233°
2026-04-20 17:27 49.28885 17.52891 31686 ft 452 kts 233°
2026-04-20 17:27 49.26881 17.49231 31068 ft 447 kts 233°
2026-04-20 17:27 49.24899 17.45609 30496 ft 441 kts 233°
2026-04-20 17:28 49.22944 17.42034 29902 ft 435 kts 233°
2026-04-20 17:28 49.20986 17.38464 29189 ft 430 kts 232°
2026-04-20 17:28 49.19094 17.35027 28491 ft 425 kts 232°
2026-04-20 17:28 49.17176 17.31546 27760 ft 422 kts 232°
2026-04-20 17:29 49.15331 17.28195 27232 ft 415 kts 232°
2026-04-20 17:29 49.13487 17.24844 26686 ft 409 kts 232°
2026-04-20 17:29 49.11671 17.21548 26143 ft 403 kts 232°
2026-04-20 17:29 49.09878 17.18301 25659 ft 397 kts 232°
2026-04-20 17:30 49.08112 17.15110 25156 ft 391 kts 232°
2026-04-20 17:30 49.06367 17.11961 24676 ft 386 kts 232°
2026-04-20 17:30 49.04646 17.08861 24209 ft 380 kts 232°
2026-04-20 17:30 49.02948 17.05804 23751 ft 375 kts 232°
2026-04-20 17:31 49.01274 17.02788 23261 ft 370 kts 232°
2026-04-20 17:31 48.99600 16.99782 22821 ft 364 kts 232°
2026-04-20 17:31 48.97995 16.96906 22397 ft 358 kts 232°
2026-04-20 17:31 48.96371 16.93999 21972 ft 353 kts 232°
2026-04-20 17:32 48.94791 16.91169 21547 ft 349 kts 232°
2026-04-20 17:32 48.93232 16.88374 21123 ft 345 kts 232°
2026-04-20 17:32 48.91687 16.85610 20715 ft 341 kts 232°
2026-04-20 17:32 48.90156 16.82875 20282 ft 338 kts 232°
2026-04-20 17:33 48.88637 16.80166 19855 ft 335 kts 232°
2026-04-20 17:33 48.87127 16.77478 19420 ft 333 kts 232°
2026-04-20 17:33 48.85626 16.74806 18982 ft 332 kts 232°
2026-04-20 17:33 48.84132 16.72151 18557 ft 330 kts 232°
2026-04-20 17:34 48.82663 16.69544 18114 ft 329 kts 231°
2026-04-20 17:34 48.80965 16.67295 17994 ft 321 kts 214°
2026-04-20 17:34 48.78887 16.66027 17911 ft 327 kts 194°
2026-04-20 17:34 48.76603 16.65789 17782 ft 332 kts 184°
2026-04-20 17:35 48.74267 16.65775 16598 ft 341 kts 184°
2026-04-20 17:35 48.71883 16.65780 15622 ft 344 kts 184°
2026-04-20 17:35 48.69497 16.65797 14816 ft 341 kts 184°
2026-04-20 17:35 48.67134 16.65817 14059 ft 339 kts 184°
2026-04-20 17:36 48.64771 16.65830 13623 ft 338 kts 184°
2026-04-20 17:36 48.63189 16.65836 13335 ft 336 kts 184°
2026-04-20 17:36 48.60861 16.65842 12913 ft 333 kts 184°
2026-04-20 17:36 48.58549 16.65847 12628 ft 332 kts 184°
2026-04-20 17:37 48.56239 16.65851 12360 ft 331 kts 184°
2026-04-20 17:37 48.53937 16.65853 12095 ft 330 kts 184°
2026-04-20 17:37 48.51642 16.65859 11826 ft 330 kts 184°
2026-04-20 17:37 48.49352 16.65863 11566 ft 329 kts 184°
2026-04-20 17:38 48.47068 16.65865 11307 ft 327 kts 184°
2026-04-20 17:38 48.45072 16.65865 11086 ft 326 kts 184°
2026-04-20 17:38 48.42972 16.65863 10846 ft 325 kts 184°
2026-04-20 17:38 48.40716 16.65862 10594 ft 324 kts 184°
2026-04-20 17:39 48.38468 16.65866 10362 ft 322 kts 184°
2026-04-20 17:39 48.36260 16.65870 10103 ft 321 kts 184°
2026-04-20 17:39 48.34015 16.65874 9889 ft 314 kts 184°
2026-04-20 17:39 48.31874 16.65878 9755 ft 302 kts 184°
2026-04-20 17:40 48.29812 16.65881 9599 ft 292 kts 184°
2026-04-20 17:40 48.27784 16.65880 9460 ft 291 kts 185°
2026-04-20 17:40 48.25761 16.65877 9327 ft 290 kts 184°
2026-04-20 17:40 48.23742 16.65878 9200 ft 290 kts 184°
2026-04-20 17:41 48.21724 16.65879 8929 ft 291 kts 184°
2026-04-20 17:41 48.19690 16.65907 8441 ft 294 kts 179°
2026-04-20 17:41 48.17745 16.66755 8190 ft 295 kts 152°
2026-04-20 17:41 48.16220 16.68788 7826 ft 297 kts 124°
2026-04-20 17:42 48.15442 16.71569 7471 ft 294 kts 97°
2026-04-20 17:42 48.15557 16.74600 7112 ft 286 kts 68°
2026-04-20 17:42 48.16439 16.77227 6765 ft 282 kts 56°
2026-04-20 17:42 48.17107 16.79976 6413 ft 285 kts 81°
2026-04-20 17:43 48.16892 16.82915 6045 ft 287 kts 109°
2026-04-20 17:43 48.15823 16.85399 5683 ft 285 kts 137°
2026-04-20 17:43 48.14136 16.86883 5320 ft 282 kts 165°
2026-04-20 17:43 48.12218 16.87181 4962 ft 276 kts 190°
2026-04-20 17:44 48.10390 16.86369 4604 ft 274 kts 204°
2026-04-20 17:44 48.08633 16.85295 4239 ft 273 kts 205°
2026-04-20 17:44 48.06940 16.84225 4185 ft 259 kts 205°
2026-04-20 17:44 48.05303 16.83192 4203 ft 253 kts 205°
2026-04-20 17:45 48.03695 16.82170 4098 ft 248 kts 206°
2026-04-20 17:45 48.02132 16.81189 3917 ft 241 kts 205°
2026-04-20 17:45 48.00591 16.80215 3681 ft 238 kts 205°
2026-04-20 17:45 47.99089 16.79263 3550 ft 231 kts 205°
2026-04-20 17:46 47.97636 16.78346 3426 ft 223 kts 205°
2026-04-20 17:46 47.96231 16.77455 3299 ft 217 kts 205°
2026-04-20 17:46 47.94857 16.76583 3166 ft 211 kts 207°
2026-04-20 17:46 47.93744 16.75269 3063 ft 202 kts 242°
2026-04-20 17:47 47.93285 16.73361 3024 ft 189 kts 262°
2026-04-20 17:47 47.93066 16.71530 3015 ft 171 kts 265°
2026-04-20 17:47 47.93144 16.69903 2991 ft 150 kts 301°
2026-04-20 17:47 47.93723 16.68672 3031 ft 143 kts 313°
2026-04-20 17:48 47.94380 16.67569 3017 ft 142 kts 315°
2026-04-20 17:48 47.95059 16.66473 3006 ft 142 kts 315°
2026-04-20 17:48 47.95726 16.65389 3016 ft 142 kts 315°
2026-04-20 17:48 47.96450 16.64405 2991 ft 140 kts 335°
2026-04-20 17:49 47.97381 16.63979 2919 ft 141 kts 345°
2026-04-20 17:49 47.98326 16.63578 2768 ft 141 kts 344°
2026-04-20 17:49 47.99271 16.63179 2567 ft 141 kts 345°
2026-04-20 17:49 48.00201 16.62787 2398 ft 141 kts 345°
2026-04-20 17:50 48.01098 16.62407 2196 ft 141 kts 344°
2026-04-20 17:50 48.02037 16.62005 2068 ft 140 kts 345°
2026-04-20 17:50 48.02959 16.61611 1899 ft 140 kts 345°
2026-04-20 17:50 48.03896 16.61240 1709 ft 139 kts 346°
2026-04-20 17:51 48.04826 16.60846 1498 ft 140 kts 345°
2026-04-20 17:51 48.05770 16.60452 1295 ft 141 kts 345°
2026-04-20 17:51 48.06699 16.60035 1077 ft 140 kts 343°
2026-04-20 17:51 48.07635 16.59658 876 ft 140 kts 344°
2026-04-20 17:52 48.08578 16.59249 696 ft 142 kts 344°
2026-04-20 17:52 48.09497 16.58860 622 ft 129 kts 344°
2026-04-20 17:52 48.10287 16.58534 619 ft 110 kts 346°
2026-04-20 17:52 48.10887 16.58278 623 ft 66 kts 344°
2026-04-20 17:53 48.11213 16.58142 614 ft 43 kts 345°
2026-04-20 17:53 48.11488 16.58025 613 ft 38 kts 344°
2026-04-20 17:53 48.11728 16.57924 618 ft 30 kts 344°
2026-04-20 17:53 48.11856 16.57764 612 ft 19 kts 287°
2026-04-20 17:54 48.11860 16.57695 609 ft 0 kts 267°
2026-04-20 17:57 48.11858 16.57664 599 ft 6 kts 265°
2026-04-20 17:57 48.11842 16.57605 623 ft 2 kts 247°
2026-04-20 17:57 48.11838 16.57584 617 ft 2 kts 253°
2026-04-20 17:58 48.11826 16.57525 616 ft 5 kts 253°
2026-04-20 17:58 48.11826 16.57520 615 ft 3 kts 253°
2026-04-20 17:58 48.11783 16.57480 620 ft 9 kts 175°
2026-04-20 17:58 48.11729 16.57505 621 ft 8 kts 163°
2026-04-20 17:59 48.11656 16.57536 614 ft 12 kts 164°
2026-04-20 17:59 48.11594 16.57555 618 ft 9 kts 189°
2026-04-20 17:59 48.11541 16.57504 611 ft 12 kts 210°
2026-04-20 17:59 48.11460 16.57437 611 ft 11 kts 206°
2026-04-20 18:00 48.11431 16.57376 628 ft 7 kts 277°
2026-04-20 18:00 48.11450 16.57317 624 ft 7 kts 296°
2026-04-20 18:00 48.11479 16.57226 615 ft 12 kts 295°
2026-04-20 18:00 48.11525 16.57086 617 ft 17 kts 296°
2026-04-20 18:01 48.11553 16.57000 618 ft 4 kts 296°
2026-04-20 18:01 48.11566 16.56960 618 ft 6 kts 296°
2026-04-20 18:01 48.11592 16.56880 620 ft 11 kts 296°
2026-04-20 18:01 48.11633 16.56753 618 ft 16 kts 296°
2026-04-20 18:02 48.11680 16.56609 618 ft 6 kts 296°
2026-04-20 18:02 48.11698 16.56553 614 ft 9 kts 296°
2026-04-20 18:02 48.11734 16.56442 621 ft 14 kts 296°
2026-04-20 18:02 48.11760 16.56356 613 ft 6 kts 282°
2026-04-20 18:03 48.11737 16.56303 627 ft 9 kts 211°
2026-04-20 18:03 48.11682 16.56261 610 ft 8 kts 206°
2026-04-20 18:03 48.11657 16.56179 610 ft 13 kts 290°
2026-04-20 18:03 48.11699 16.56056 618 ft 14 kts 296°
2026-04-20 18:04 48.11744 16.55916 617 ft 16 kts 296°
2026-04-20 18:04 48.11788 16.55803 613 ft 7 kts 317°
2026-04-20 18:04 48.11828 16.55783 619 ft 5 kts 348°
2026-04-20 18:04 48.11865 16.55772 624 ft 3 kts 349°
2026-04-20 18:05 48.11895 16.55764 617 ft 0 kts 349°
2026-04-20 18:05 48.11898 16.55763 615 ft 0 kts 349°